Simultaneous Nadir Overpasses (SNOs) Predictions

Prediction of SNOs between GOES-14 and NPP Satellite Orbit:

Table of predicted SNOs for the next 14.0 days since TLE Epoch: 9/10/2022
Index Date Time (GOES-14) GOES-14 Lat,Lon NPP Lat,Lon Distance(km) Time Diff (sec)
1 09/11/2022 08:33:42 0.38,-104.42 0.88,-106.58 246.64 80
2 09/12/2022 08:12:18 0.39,-104.40 -0.12,-102.05 268.03 80
3 09/13/2022 20:34:16 -0.37,-104.52 -0.99,-107.37 324.57 80
4 09/14/2022 20:18:12 -0.38,-104.53 0.01,-102.84 192.73 80
5 09/16/2022 08:40:00 0.36,-104.43 1.17,-108.11 419.06 80
6 09/17/2022 08:18:35 0.37,-104.41 0.17,-103.58 95.45 80
7 09/19/2022 20:24:28 -0.35,-104.49 -0.33,-104.35 14.99 80
8 09/22/2022 08:27:32 0.33,-104.42 0.50,-105.09 77.52 80
9 09/23/2022 08:06:08 0.34,-104.40 -0.50,-100.56 437.19 80
